Temp
11 11 11 11 10 10 10 10 10 10 10 10 10 10 10 10 10 9 9 9 9 9 9 8 8 8 6 6 7 7 7 7 7 7 7 7 7 7 7 6 6 7 6 6 7 7 7 7 7 7 7 7
11 11 10 10 10 10 10 10 10 10 10 10 10 10 10 10 9 9 9 9 9 9 9 8 8 8 6 6 6 6 6 6 6 6 6 7 6 6 6 6 7 7 6 6 7 7 7 7 7 7 7 7
10 10 10 10 10 10 10 10 10 10 10 10 10 9 9 9 9 9 9 9 9 8 8 8 8 8 7 6 5 5 5 6 6 6 6 6 5 5 6 6 7 7 7 7 6 7 7 7 7 7 7 7
10 10 10 10 10 10 10 9 9 9 9 9 9 9 9 9 9 9 9 8 8 8 8 8 8 8 7 6 6 6 6 5 5 5 5 5 5 5 6 6 7 7 7 6 6 6 7 7 7 7 7 7
10 10 10 10 9 10 9 9 9 9 9 9 9 9 9 9 9 9 8 8 8 8 8 8 8 8 8 7 7 7 7 6 5 5 5 5 4 4 5 6 6 6 6 6 6 6 6 6 6 6 6 6
9 9 9 9 9 9 9 9 9 9 9 9 9 9 9 8 8 8 8 8 8 8 8 8 8 8 8 8 8 8 7 7 6 5 4 4 4 4 4 5 5 5 5 6 6 6 6 6 5 5 5 5
8 9 9 9 9 9 9 9 9 9 8 8 8 8 8 8 8 8 7 8 8 8 8 8 8 8 7 7 8 8 7 6 6 5 4 4 4 4 4 4 4 4 4 4 5 5 5 5 5 5 5 5
8 9 9 9 9 9 8 8 8 8 8 8 8 8 8 8 8 8 7 8 8 8 7 7 7 7 7 6 6 7 5 4 4 4 4 3 3 4 4 4 4 4 3 3 4 4 4 5 5 4 4 4
8 9 9 8 8 8 8 7 7 7 7 8 8 8 8 8 8 8 7 7 7 7 7 7 7 6 6 6 5 5 4 4 4 3 4 3 3 4 4 4 4 3 3 3 3 3 3 4 4 4 4 4
8 8 8 7 8 7 7 7 7 7 8 8 8 8 8 8 8 7 7 7 7 7 7 6 6 6 6 5 5 4 3 3 3 3 3 3 3 3 3 3 3 3 2 3 3 3 3 3 3 4 4 4
7 7 6 7 7 7 7 7 7 7 8 8 8 8 8 8 7 7 7 7 7 7 7 6 6 6 5 5 5 4 3 3 3 3 3 3 3 3 3 3 3 3 2 2 2 2 3 3 3 3 3 3
6 6 6 7 7 7 7 8 7 7 7 7 7 7 7 7 7 7 7 7 7 7 6 6 6 6 5 5 5 4 3 2 2 2 2 2 2 2 2 2 2 2 2 2 2 2 2 3 3 3 3 3
6 6 6 7 7 7 8 7 7 7 7 7 7 6 6 7 6 6 6 6 6 6 6 6 6 5 5 5 5 4 3 2 2 2 2 2 2 2 2 2 2 2 2 2 2 1 2 2 2 2 2 2
6 6 6 7 7 8 7 7 6 6 6 6 6 6 6 6 6 6 6 6 5 5 5 5 5 5 5 4 4 3 3 3 2 2 2 1 1 2 2 2 2 2 2 2 2 1 1 1 2 2 2 2
6 6 6 7 7 7 7 6 6 6 6 6 6 6 6 6 6 5 5 5 5 5 5 5 5 4 4 4 4 3 3 3 3 2 1 1 1 1 2 2 2 2 2 2 1 1 1 1 1 1 1 1
6 6 7 7 7 7 6 6 6 6 6 6 6 7 6 6 6 6 5 5 5 5 4 4 4 4 4 3 4 3 3 3 3 2 1 1 1 1 1 2 2 2 2 2 1 1 0 0 1 1 1 1
6 7 7 7 7 6 6 6 5 6 6 6 6 6 6 6 6 6 5 5 4 4 4 4 4 4 3 3 4 3 3 3 2 2 1 1 0 1 1 1 1 2 2 2 1 0 0 -0 0 0 0 0
7 7 7 7 6 6 5 5 5 6 6 7 6 6 6 6 6 6 5 4 4 4 4 4 3 3 3 3 4 3 3 3 2 2 1 0 0 1 1 1 1 1 2 2 1 0 -0 -0 -0 -0 -1 -1
7 7 7 6 6 5 5 5 5 5 6 6 6 6 6 6 5 5 5 4 4 4 4 3 3 3 3 3 3 2 2 2 1 1 1 -0 -0 0 1 1 1 1 1 1 1 0 -0 -1 -1 -1 -1 -1
7 7 7 6 6 5 5 5 5 5 6 6 6 6 5 5 5 5 4 4 4 4 3 3 3 3 3 3 2 2 2 2 1 1 1 -0 -0 -0 0 0 1 1 1 1 1 0 -1 -1 -1 -1 -1 -1
7 7 6 6 6 6 6 5 5 5 5 5 5 5 5 5 5 4 4 4 4 4 3 3 3 2 3 2 2 2 1 1 1 1 1 -0 -1 -1 -0 0 0 0 1 0 0 0 -0 -1 -1 -1 -1 -1
6 6 6 6 6 6 6 6 5 5 5 5 5 5 5 5 4 4 4 4 4 4 3 3 3 3 2 2 2 2 1 1 0 0 0 -0 -1 -1 -1 -0 -0 -0 -0 -0 -0 0 0 -1 -1 -1 -2 -2
6 6 6 6 6 6 6 6 5 5 5 5 5 5 5 4 4 4 4 4 4 4 4 3 3 3 2 2 2 1 1 0 0 0 0 0 -0 -1 -1 -1 -1 -1 -1 -1 0 1 1 -0 -2 -2 -2 -2
5 5 4 4 5 5 5 6 5 5 5 4 4 4 4 4 4 4 4 4 4 4 4 3 3 3 2 2 1 1 1 0 -0 0 0 0 0 -1 -1 -1 -1 -2 -2 -0 1 1 1 1 -1 -2 -3 -3
5 4 4 4 4 4 5 5 5 5 5 4 4 4 4 4 4 4 4 4 4 4 4 3 3 2 2 2 1 1 0 -0 -0 -0 -0 0 -0 -2 -1 -1 -2 -3 -2 0 1 1 1 1 -0 -2 -3 -3
5 5 5 5 5 5 5 5 5 4 4 4 4 4 4 4 4 4 4 4 4 4 3 3 3 2 2 1 1 0 0 -0 -1 -1 -1 -1 -1 -2 -2 -1 -2 -3 -2 -0 -0 -0 1 3 2 -1 -2 -2
5 5 6 6 5 5 5 5 5 5 4 4 4 4 4 3 3 3 4 3 3 3 3 3 2 2 1 1 0 -0 -0 -1 -1 -2 -2 -2 -2 -3 -2 -2 -3 -4 -3 -2 -2 -0 1 3 3 1 0 -1
6 6 6 6 6 6 5 5 5 5 5 4 4 4 3 3 3 3 3 3 3 3 3 3 2 2 1 0 0 -0 -1 -1 -2 -2 -3 -3 -3 -4 -3 -3 -3 -4 -4 -4 -3 -0 1 2 3 3 2 1
6 6 6 6 5 5 5 5 5 5 4 4 4 4 3 3 3 3 3 3 3 2 2 2 2 2 1 0 -0 -1 -1 -2 -2 -2 -3 -3 -4 -5 -4 -4 -4 -4 -4 -5 -4 -3 -1 1 3 2 0 -0
6 6 6 5 4 4 4 4 4 4 3 3 3 3 3 3 3 3 3 3 2 2 2 2 2 1 1 -0 -1 -1 -1 -2 -2 -3 -3 -3 -5 -6 -5 -5 -4 -4 -4 -5 -5 -5 -4 -2 -1 -2 -3 -2
6 6 6 5 4 3 3 3 3 3 3 3 3 3 3 2 2 2 2 2 2 2 2 1 1 1 1 -0 -1 -1 -2 -2 -2 -3 -3 -3 -4 -5 -6 -6 -5 -4 -5 -4 -4 -5 -5 -5 -5 -5 -4 -3
Height
889 888 887 885 884 883 881 880 879 877 876 875 873 872 870 869 867 866 864 862 860 858 857 855 853 851 850 849 848 846 845 843 841 839 838 836 834 832 830 828 825 822 820 818 815 813 810 808 805 804 801 799
890 888 887 886 885 884 882 881 880 879 877 876 874 872 871 869 868 866 864 862 861 859 857 855 853 851 850 849 847 846 844 842 841 839 838 836 833 831 829 827 825 822 820 818 815 813 811 808 806 804 802 800
890 889 888 887 886 885 883 882 881 879 878 876 874 873 871 869 868 866 864 862 861 859 857 855 853 852 850 848 847 845 843 842 841 839 837 835 833 831 829 827 825 822 820 818 816 814 811 809 807 804 802 801
891 890 889 888 887 885 884 883 881 880 878 877 875 873 871 869 867 865 864 862 860 858 857 855 853 852 850 848 846 844 843 841 840 838 837 835 833 831 828 827 825 823 820 818 816 814 812 809 807 805 803 801
892 891 890 888 887 886 884 883 882 880 879 877 875 873 871 869 867 865 863 862 860 859 857 855 853 851 850 848 846 844 842 841 839 838 836 835 833 831 828 826 825 823 820 818 816 815 812 810 808 806 804 802
892 891 890 889 888 886 885 884 882 881 879 877 875 873 870 868 867 865 864 863 861 859 857 856 854 852 850 849 846 845 842 840 839 837 836 834 832 831 829 826 825 823 821 819 817 815 813 811 809 807 805 803
893 892 890 889 888 887 886 885 883 881 879 877 875 872 870 869 868 866 864 863 861 859 857 856 854 852 850 848 846 844 842 840 839 837 836 834 832 831 829 827 826 824 822 819 817 815 814 812 810 808 806 804
893 892 891 890 889 888 886 884 882 880 878 876 874 872 870 870 868 866 865 863 861 859 857 855 853 851 849 847 846 843 842 841 839 837 836 834 833 831 830 829 827 825 823 821 818 817 815 813 811 809 807 805
894 893 892 891 889 888 886 884 882 879 878 876 874 873 871 870 868 867 866 864 861 859 857 855 853 852 850 848 846 844 843 841 839 838 837 835 834 832 831 830 828 827 825 822 820 818 816 814 813 810 808 806
894 893 892 891 889 887 886 883 881 879 878 877 876 874 872 871 870 868 866 865 862 860 858 856 854 852 851 849 847 845 844 842 840 839 838 836 835 834 832 831 830 828 826 824 821 820 818 816 814 812 810 808
895 893 892 890 889 887 885 883 882 882 880 879 877 875 874 872 870 869 867 865 863 861 859 858 856 854 852 850 848 846 845 843 841 840 839 837 836 834 833 832 830 829 827 825 823 821 819 817 815 813 811 809
895 893 892 890 889 887 885 884 884 883 882 880 878 876 874 872 871 870 868 866 864 862 861 859 857 855 853 851 849 847 846 844 842 841 840 838 837 835 834 832 831 830 828 826 824 822 820 818 816 815 813 811
895 893 892 890 889 887 887 887 886 884 883 881 879 877 875 873 872 870 869 867 865 864 862 860 858 855 853 852 850 848 846 845 843 842 840 839 837 836 834 833 832 830 829 828 826 824 822 820 817 816 814 812
895 893 892 891 889 889 889 888 887 885 884 881 879 878 876 875 873 871 869 868 866 865 863 860 858 856 854 853 851 849 847 845 844 842 841 839 838 836 835 834 833 831 830 829 827 825 823 821 819 817 815 813
895 894 892 892 891 890 890 888 887 885 883 881 879 878 877 876 874 872 870 868 867 865 863 861 859 857 855 853 851 849 848 846 844 843 841 840 838 837 836 835 834 832 831 830 828 826 824 822 820 818 816 813
895 894 893 892 892 891 890 888 887 885 883 881 880 879 878 877 875 873 871 869 868 866 864 862 859 858 856 854 852 850 848 846 844 843 842 840 838 838 837 836 834 833 832 830 829 827 825 823 821 819 817 815
895 894 894 893 892 891 890 888 887 885 883 882 880 879 878 877 876 874 872 870 868 866 864 862 860 858 856 854 852 850 848 846 845 843 842 840 839 838 837 836 835 834 832 831 830 828 826 824 822 820 818 816
896 895 894 893 892 891 890 888 887 885 883 882 881 880 879 877 876 874 872 870 868 866 864 862 860 858 856 855 852 851 849 847 845 843 842 840 839 839 838 837 835 834 833 832 830 828 826 824 823 821 819 817
895 895 894 893 892 891 890 888 887 885 883 882 881 880 879 877 876 874 872 870 868 866 864 862 860 858 857 855 853 851 849 847 846 844 842 841 840 839 838 837 836 835 833 832 830 829 827 825 823 821 820 818
895 894 893 892 892 890 889 888 887 885 884 883 882 880 878 877 875 874 872 870 868 866 864 862 860 859 857 855 853 852 850 848 846 844 842 841 840 839 839 837 836 835 833 832 830 829 827 825 823 822 820 819
894 893 893 892 891 890 889 888 886 885 884 883 882 880 878 877 875 873 872 870 868 866 864 862 861 859 857 855 854 852 850 849 847 845 843 842 841 840 839 838 836 835 833 832 830 829 827 825 823 822 821 819
893 892 892 891 890 889 888 887 886 885 884 883 882 880 878 877 875 873 871 870 868 866 864 862 861 859 857 855 854 852 851 849 847 845 843 842 841 840 839 838 837 835 833 831 830 828 827 825 823 822 821 819
892 891 891 890 889 888 887 886 886 885 884 883 882 880 878 876 875 873 871 870 868 866 864 863 861 859 857 855 854 852 851 849 847 845 843 842 840 839 839 838 837 835 833 831 829 827 826 825 823 821 820 819
891 890 890 890 889 888 887 886 886 885 884 883 881 880 878 876 875 873 871 869 868 866 864 863 861 859 857 855 854 852 851 849 847 845 844 842 840 839 839 838 837 835 832 830 828 826 825 823 823 821 820 819
890 890 889 888 888 887 886 886 885 885 884 882 881 879 877 876 874 873 871 869 867 865 864 863 861 859 858 856 854 852 851 849 847 845 844 842 840 839 839 838 836 834 832 830 828 825 823 822 821 820 819 819
888 888 887 886 885 885 885 884 884 884 883 881 880 878 877 875 874 872 871 869 867 865 863 862 861 859 858 856 855 853 851 849 847 845 844 842 841 839 839 838 836 834 832 831 829 826 823 819 818 819 819 818
887 886 885 884 883 883 883 883 883 883 882 880 879 877 876 875 874 872 870 868 866 864 862 861 860 859 858 857 855 853 851 849 847 845 844 842 841 839 838 838 836 834 833 832 830 827 823 820 818 817 816 818
885 884 883 882 881 881 881 881 881 881 880 879 877 876 875 874 873 871 870 868 866 864 862 860 859 858 857 856 855 853 852 849 847 846 844 843 841 840 839 837 836 834 833 832 830 828 825 821 818 815 815 817
883 882 881 880 880 880 880 880 880 879 879 877 876 875 874 873 872 870 869 867 865 863 861 860 858 857 856 855 854 853 851 850 848 846 844 843 841 840 839 837 836 835 833 832 831 831 828 823 819 818 820 819
882 881 879 879 879 879 879 879 879 879 878 877 875 874 873 872 871 870 868 866 864 863 861 859 858 857 855 854 853 852 851 849 847 846 844 843 841 840 839 837 836 835 833 832 830 830 830 828 825 825 825 822
880 879 878 878 878 878 878 878 878 877 876 875 874 873 872 871 869 868 867 865 863 862 860 859 857 856 854 853 852 850 849 848 847 845 843 842 841 840 839 837 836 835 833 832 831 829 829 828 828 827 827 824
Wind_Speed
19 19 20 20 21 21 21 22 22 21 21 21 21 21 22 22 22 22 21 21 21 21 21 21 20 20 19 20 20 20 20 21 22 22 22 23 22 22 23 23 25 26 24 24 26 27 26 24 24 23 22 21
18 19 19 19 19 20 20 20 20 20 20 21 21 22 22 22 22 22 22 23 22 22 22 21 21 20 19 18 19 19 19 20 21 21 21 21 21 22 22 23 26 26 25 26 26 25 24 24 23 21 21 22
18 18 18 18 18 18 18 19 19 20 21 22 22 22 22 23 24 24 24 24 24 24 23 23 22 21 19 18 18 17 17 18 19 19 19 20 20 20 21 23 25 26 26 26 26 24 24 23 23 22 22 23
17 16 16 16 17 17 18 19 19 20 21 21 22 22 23 24 25 25 26 26 25 25 25 24 23 21 20 19 18 18 17 16 17 18 18 19 18 19 20 22 23 24 25 26 26 25 24 25 25 25 25 24
16 16 16 16 17 18 19 19 19 20 20 21 22 22 23 25 25 26 27 27 26 26 26 26 25 24 23 22 21 20 19 17 16 16 17 18 18 18 19 20 21 23 24 24 25 25 25 26 26 25 25 24
16 16 16 17 18 19 19 19 19 20 20 21 21 22 24 26 26 26 26 26 26 26 26 26 25 25 25 24 23 23 22 21 19 17 16 17 18 18 18 19 20 22 24 24 24 25 25 26 26 25 25 25
16 15 16 17 18 18 18 19 19 20 20 21 22 25 27 26 26 27 27 27 28 28 28 28 28 28 27 27 26 26 25 24 23 20 17 17 18 18 18 17 17 19 22 23 24 24 24 25 25 25 26 25
15 15 16 16 16 17 18 19 20 21 23 24 26 27 28 27 28 29 29 29 30 30 30 30 31 30 30 29 28 28 25 23 23 20 16 17 17 16 17 16 16 17 19 21 22 22 23 24 25 25 26 27
14 14 15 15 17 18 19 20 22 25 26 27 27 27 27 28 29 29 29 29 30 31 31 31 31 30 30 29 28 28 24 22 21 19 16 16 16 15 16 16 16 16 17 19 19 19 21 23 24 26 27 28
14 14 16 17 18 19 21 23 26 27 26 25 25 26 27 27 28 28 28 29 30 31 31 31 31 30 30 29 28 26 22 22 20 17 16 16 16 15 15 15 15 15 15 17 17 17 20 22 24 26 27 27
14 16 18 18 19 21 23 25 25 24 23 22 23 24 25 26 27 28 28 29 29 30 30 30 30 29 29 29 29 25 22 23 20 16 16 15 16 15 14 14 14 14 15 16 16 16 18 21 22 24 26 26
15 17 18 19 21 23 24 23 22 21 21 21 22 23 24 25 26 26 27 27 28 29 28 29 29 29 29 29 29 26 23 24 20 17 16 16 16 14 14 14 13 14 14 14 14 15 17 19 20 22 24 25
15 17 18 20 21 22 21 20 19 20 20 21 22 24 24 24 24 24 25 25 26 27 27 27 28 28 28 28 28 27 25 24 21 18 17 16 16 14 13 13 13 13 14 13 13 14 15 17 19 20 22 24
15 16 18 19 20 19 18 18 18 19 20 22 23 24 23 22 22 23 23 24 25 25 26 26 27 27 27 27 27 26 25 24 22 19 17 17 15 14 14 13 13 13 13 13 12 12 14 15 18 19 20 23
14 15 16 17 17 16 16 17 18 19 21 22 23 23 22 22 22 22 23 23 24 24 25 25 26 26 26 26 26 25 25 25 24 21 19 18 15 13 13 12 13 12 13 12 11 11 12 15 16 17 19 23
13 14 14 14 15 15 15 17 18 19 21 22 22 21 21 21 21 21 21 21 22 22 23 24 24 25 25 25 25 25 25 25 24 22 20 20 16 12 12 12 12 12 12 12 10 10 12 13 15 16 19 22
13 12 12 13 14 14 15 16 17 18 19 20 20 20 20 20 20 19 20 20 21 22 22 23 23 24 24 23 24 25 25 25 24 22 21 20 15 12 11 11 12 12 11 12 10 10 11 12 14 16 18 20
12 12 12 12 12 13 14 15 16 17 18 19 18 18 19 19 19 19 19 19 20 21 22 22 23 23 23 23 24 24 24 24 23 22 21 19 15 12 11 11 12 12 11 12 10 10 10 11 13 15 17 18
11 11 11 11 12 12 13 14 15 15 16 17 17 17 17 18 18 18 18 19 20 21 21 22 22 22 22 22 22 22 23 23 22 22 20 18 15 12 11 11 11 12 12 12 11 10 9 10 12 13 15 17
10 10 10 10 11 12 13 13 14 15 15 15 15 15 16 17 17 18 18 18 19 20 20 21 21 21 21 21 21 21 22 22 22 22 20 17 15 13 11 11 11 11 11 11 11 11 9 10 12 12 14 16
10 9 10 10 11 12 12 13 13 14 14 14 14 14 15 16 16 17 17 17 18 19 19 19 19 19 20 20 20 20 21 20 20 21 20 17 15 13 11 11 12 12 12 11 11 11 10 11 11 11 13 14
10 9 9 10 11 12 12 13 13 13 14 14 13 14 14 15 15 16 16 17 17 18 18 19 19 19 19 19 19 20 20 20 20 20 20 18 15 13 11 10 11 13 13 12 11 11 11 11 11 11 12 12
10 10 10 10 11 12 13 14 13 12 13 13 13 13 13 14 15 15 15 16 16 17 18 18 18 18 18 18 19 19 19 19 19 19 19 18 16 14 10 8 10 13 14 12 11 11 12 11 10 11 11 10
10 9 9 9 10 10 12 14 13 12 12 12 13 13 13 14 14 14 14 14 15 16 17 17 18 17 17 18 18 18 18 17 18 18 18 16 16 15 11 7 9 13 14 11 11 11 11 10 9 10 8 8
9 7 7 7 8 10 12 14 12 12 12 12 12 12 12 13 14 14 14 14 14 15 16 17 17 17 17 17 17 16 16 16 16 16 17 16 14 13 11 8 9 14 14 9 10 11 9 8 7 6 6 6
8 8 8 8 9 11 13 13 12 12 12 12 12 12 12 13 13 14 14 14 14 14 15 16 17 17 17 16 16 16 15 15 15 16 16 16 14 11 9 7 8 14 12 7 10 10 8 7 4 5 5 6
9 9 9 10 10 11 12 13 12 11 12 11 11 12 13 13 13 14 14 14 14 14 14 15 15 16 16 15 15 15 15 15 15 15 15 15 14 11 8 6 7 10 9 7 10 8 5 5 4 3 2 5
9 10 10 10 10 11 11 12 13 13 12 12 12 13 13 13 14 14 14 14 14 14 14 14 14 15 14 14 14 14 14 14 14 14 14 14 13 11 8 6 6 8 8 7 7 5 4 5 5 2 4 11
9 10 10 11 11 11 10 10 11 10 9 11 13 14 14 14 14 14 14 14 14 14 14 14 14 14 14 13 13 13 13 13 13 12 12 12 11 10 8 7 6 6 6 5 5 4 3 3 4 3 8 13
8 9 10 10 10 8 8 8 7 7 8 11 14 15 15 15 14 15 15 15 14 14 14 14 14 14 13 13 13 12 12 12 12 11 11 11 10 8 8 7 6 5 6 4 3 3 1 2 4 4 8 8
7 8 9 10 9 9 9 9 7 10 14 15 15 16 16 16 16 15 15 15 15 14 14 14 14 14 13 13 13 12 12 12 12 11 11 10 9 8 8 7 5 6 6 3 3 3 1 5 7 7 6 5
Wind_Direction
29 31 31 31 31 32 32 30 29 27 26 26 27 27 28 28 27 26 24 22 20 17 14 11 9 8 8 5 5 5 4 4 2 1 0 360 358 357 356 355 355 353 355 354 351 350 349 352 354 351 354 354
33 34 34 34 33 32 32 31 29 28 28 28 29 29 29 29 28 28 26 25 24 21 18 14 11 8 7 5 4 3 2 3 2 3 2 0 359 359 359 357 356 356 357 355 354 356 355 357 356 353 357 358
36 37 37 35 34 34 33 32 31 30 30 30 30 30 29 29 29 28 27 26 25 23 21 18 15 11 8 6 4 3 1 2 3 4 4 1 360 360 360 358 356 357 358 358 359 357 359 3 360 359 2 359
40 39 38 37 36 36 36 34 33 32 31 31 30 30 29 29 28 27 27 26 24 24 23 21 19 15 12 9 6 2 1 1 3 2 3 1 358 358 358 357 355 356 358 360 1 358 1 5 3 5 5 2
41 40 38 37 37 37 37 34 34 33 32 32 31 30 30 31 29 28 27 24 23 23 23 22 20 18 16 12 8 4 2 1 1 1 1 360 357 356 355 358 359 358 1 1 1 359 2 7 7 8 7 5
40 39 38 37 37 36 36 34 34 34 33 34 33 34 35 34 30 30 29 25 25 26 25 23 21 21 19 16 13 10 10 8 7 5 0 359 359 357 354 360 3 0 1 2 360 359 2 6 9 9 8 7
39 39 37 36 35 35 36 33 34 35 36 37 35 36 37 34 31 31 30 25 26 26 26 24 22 22 20 19 16 15 15 10 11 11 2 358 360 1 0 2 2 359 360 1 1 1 4 7 7 8 7 6
39 38 37 36 35 35 34 31 32 34 35 35 34 34 35 33 30 30 27 24 25 25 25 23 22 22 20 18 15 17 16 8 9 11 2 358 1 2 4 3 360 358 358 1 3 4 7 8 7 7 7 6
38 38 38 37 35 35 32 30 30 31 31 30 31 32 32 31 29 29 27 25 25 25 24 23 22 21 19 18 15 16 14 7 7 6 360 358 1 1 1 0 359 357 357 1 4 6 9 9 7 8 8 6
35 36 37 35 33 32 29 29 29 28 27 26 28 30 30 31 30 29 27 26 25 25 24 22 22 21 19 18 16 15 10 7 6 1 360 357 357 358 357 358 357 356 357 0 4 7 10 9 7 7 5 3
33 33 34 33 31 30 28 28 27 24 24 24 28 30 30 32 31 29 27 26 25 25 24 22 22 21 20 19 17 15 9 7 5 359 358 355 354 353 353 355 354 354 356 359 2 6 8 7 6 3 0 360
30 30 31 31 30 28 27 26 22 21 22 24 27 28 29 31 31 29 27 26 25 25 24 22 22 21 21 19 17 16 11 7 5 359 356 353 351 350 350 352 352 352 353 356 360 3 4 4 5 1 357 357
26 29 29 29 29 27 24 21 18 19 21 23 27 26 26 30 31 29 28 27 26 25 24 22 23 22 21 19 17 17 13 9 5 359 356 353 352 350 349 349 350 349 348 351 355 0 2 3 4 1 356 357
22 27 28 28 27 24 20 19 18 19 21 24 26 24 23 26 28 29 27 26 26 25 24 22 23 22 21 19 17 17 14 11 8 2 357 355 353 351 350 349 348 347 346 347 349 357 1 2 2 1 359 358
21 25 26 27 26 22 20 19 20 21 22 23 24 21 19 21 24 27 27 25 24 24 25 23 23 22 20 18 17 17 15 14 12 6 1 359 357 351 350 349 348 347 346 345 346 352 356 359 359 359 359 358
18 22 23 25 24 21 20 20 20 22 22 21 22 20 17 17 18 23 26 25 23 24 25 24 24 22 20 18 16 16 15 15 15 10 4 3 1 353 349 350 349 347 344 343 343 347 350 354 356 357 358 358
11 16 19 20 19 19 18 19 20 21 21 19 19 19 17 15 14 19 22 23 23 23 24 24 24 23 20 18 16 16 14 15 16 12 7 5 2 354 352 353 350 348 344 342 339 341 347 350 352 353 355 358
5 9 12 13 12 14 15 17 17 18 20 17 16 17 16 14 12 15 18 20 22 23 23 23 23 22 19 17 18 17 13 15 16 14 11 6 1 355 353 353 349 348 343 339 337 333 341 344 346 352 356 359
1 5 5 5 4 7 10 13 13 15 19 16 13 14 14 14 11 11 14 16 20 22 21 21 20 19 18 17 19 17 14 16 16 16 16 8 1 354 351 350 346 346 340 335 332 328 333 338 344 352 354 355
356 358 358 357 357 1 5 8 10 10 14 14 10 12 13 13 11 9 10 13 18 20 20 19 18 17 16 18 19 17 16 18 15 16 18 12 5 356 347 346 343 341 336 330 325 322 324 328 339 346 346 349
352 354 354 354 352 354 358 3 6 5 7 8 7 9 9 10 9 7 8 10 15 18 18 17 16 15 16 18 19 18 18 19 17 16 16 14 10 1 347 342 341 339 334 325 319 315 313 317 330 337 337 345
349 351 350 349 347 349 352 357 1 1 1 0 1 4 4 6 6 4 5 7 11 13 13 14 13 13 15 17 18 19 18 18 18 18 16 13 12 5 351 342 342 338 331 322 314 310 308 308 316 324 330 341
349 350 348 345 342 346 349 352 354 354 355 353 354 358 359 1 1 360 1 3 7 8 8 9 9 11 13 15 18 19 17 16 16 18 17 13 11 8 357 344 341 338 331 321 310 308 304 300 303 313 324 339
348 346 338 335 338 341 341 343 345 345 347 346 347 350 353 356 355 353 356 358 2 4 3 3 5 8 10 13 18 18 16 15 14 16 17 16 13 9 2 349 344 344 337 320 312 310 300 292 292 302 314 331
345 340 325 327 333 331 330 334 336 335 337 339 340 343 347 349 348 347 349 351 356 359 360 359 0 4 7 10 14 15 14 13 14 14 14 17 16 10 2 352 349 351 346 330 328 326 310 294 272 279 306 313
346 342 336 333 330 326 326 327 327 325 327 331 333 337 341 341 341 340 341 345 350 353 355 356 356 359 2 4 7 11 10 9 12 13 12 14 15 12 3 352 352 358 1 351 333 322 310 310 264 240 290 298
348 342 341 338 332 326 322 319 320 322 321 323 327 332 336 334 332 332 335 340 343 346 349 352 353 354 357 358 2 6 5 4 8 9 11 12 12 10 1 354 359 4 12 356 330 312 296 326 317 243 279 320
350 346 343 339 334 328 322 316 317 321 319 320 324 328 330 328 326 326 330 334 337 340 342 345 347 348 350 351 356 1 359 359 3 5 7 8 9 7 355 350 359 5 14 8 351 334 298 296 302 290 356 339
348 349 346 344 340 333 329 320 317 321 317 315 319 321 322 321 320 322 325 329 331 333 336 338 340 341 343 344 349 354 353 352 356 359 1 2 5 3 351 341 339 350 3 15 28 7 311 291 303 323 341 332
342 347 349 348 343 330 319 311 307 305 300 303 309 311 313 315 316 318 320 322 325 328 330 331 332 334 336 338 340 345 346 344 346 351 353 356 359 352 346 340 325 333 347 355 15 15 262 247 275 301 324 325
335 342 347 346 338 325 310 299 292 297 302 304 304 305 308 310 313 315 316 318 320 323 324 324 325 327 329 331 332 334 336 335 336 342 344 348 351 342 342 341 318 319 336 329 323 343 252 239 246 255 289 301